Wind_Speed
45 44 44 44 42 42 41 40 39 39 39 39 39 39 39 39 38 37 36 36 36 35 34 32 32 31 30 30 30 30 31 31 33 34 35 35 36 36
44 43 43 42 41 40 39 39 38 38 38 38 39 39 39 38 37 37 36 35 35 34 32 31 30 29 28 28 29 29 30 30 32 33 34 35 35 36
43 42 41 40 39 39 38 37 37 37 37 37 37 37 37 36 36 36 35 35 34 33 31 30 29 29 28 28 28 28 29 31 32 33 35 36 37 37
41 40 39 38 37 37 36 36 36 36 36 36 36 36 36 36 35 35 34 34 33 32 31 30 29 29 28 28 28 29 30 31 32 34 35 36 38 39
39 38 37 36 36 35 35 35 35 35 35 35 35 35 35 35 35 34 34 33 33 32 32 31 30 29 29 29 29 30 31 32 32 33 34 36 38 39
37 36 35 35 35 34 34 34 34 34 34 34 35 35 35 35 34 34 33 33 32 32 32 32 32 32 31 31 31 32 32 33 34 35 36 37 39 40
35 34 34 34 33 33 33 33 33 33 34 34 34 34 34 34 34 34 33 33 33 33 33 33 34 34 34 34 34 34 34 35 36 38 39 40 41 42
33 33 33 32 32 32 32 32 32 33 33 34 34 34 34 34 34 34 34 34 34 35 35 35 36 36 36 36 36 37 37 38 39 40 41 43 44 45
32 32 31 31 31 31 31 32 32 33 34 34 34 34 34 34 35 35 35 36 36 36 37 37 37 37 38 39 39 40 41 41 42 43 44 45 46 47
31 30 30 30 30 31 31 32 33 33 34 34 34 35 35 35 35 36 37 37 38 38 39 39 39 40 40 41 42 42 43 44 44 45 46 48 48 49
30 29 30 30 31 32 32 32 33 34 34 34 35 35 35 36 37 38 38 39 40 40 40 41 41 42 42 43 43 44 45 45 46 47 48 49 50 50
29 29 30 31 32 32 33 33 34 35 35 35 36 36 37 38 39 39 40 41 41 41 42 43 43 44 44 45 45 46 46 47 47 48 49 50 50 51
30 30 31 32 33 33 34 35 35 36 36 37 37 38 38 39 40 41 41 42 42 43 43 44 45 45 45 46 47 47 47 47 47 47 48 49 50 50
31 32 33 33 34 34 35 36 37 37 38 38 38 39 40 40 41 41 42 43 44 44 45 45 45 46 46 46 46 47 47 47 47 47 47 48 49 49
32 33 34 34 35 36 36 37 38 38 38 39 39 40 41 41 42 42 43 44 44 44 45 45 45 45 45 45 46 47 47 47 47 47 47 47 48 48
33 34 35 35 36 37 37 38 38 38 39 40 41 41 42 42 43 43 43 43 44 44 45 45 45 45 45 45 46 47 48 47 47 47 46 46 46 46
34 34 35 36 37 37 38 38 39 39 40 41 42 42 43 43 43 43 43 44 44 45 46 46 45 45 45 46 46 47 47 47 46 46 45 44 44 44
35 36 36 37 38 38 39 39 40 40 41 42 42 43 43 43 43 44 44 45 46 46 47 47 46 46 45 45 46 46 46 45 45 44 43 42 42 43
36 37 38 38 39 40 40 41 41 41 42 42 43 43 43 44 44 45 46 47 47 48 48 48 47 46 45 45 45 46 46 44 43 42 41 39 39 40
38 38 39 40 40 40 41 41 42 42 43 43 44 44 44 45 46 47 48 48 48 49 49 49 48 47 46 45 43 44 45 43 41 40 40 38 37 37
39 40 40 40 41 41 42 42 43 43 44 44 44 45 45 46 47 48 48 49 49 49 49 49 49 48 46 44 42 41 42 43 41 40 38 37 35 35
40 40 41 41 42 42 43 43 44 44 44 44 45 45 46 47 48 49 49 49 50 50 49 49 49 48 46 44 41 40 40 41 41 39 38 36 34 32
40 41 42 42 42 43 43 43 44 44 44 44 45 46 47 48 49 49 50 50 50 50 49 49 48 47 46 44 41 39 39 39 39 38 37 37 35 32
Wind_Direction
289 290 290 291 291 291 292 292 292 293 293 294 295 296 297 297 298 297 298 298 299 299 298 296 295 291 288 284 280 275 270 267 264 262 258 256 255 253
287 288 289 289 289 290 291 292 292 293 293 294 296 297 297 297 297 297 297 298 299 298 297 296 295 292 289 286 280 275 270 267 265 263 260 259 257 255
286 287 287 288 288 289 290 291 293 294 295 296 297 297 298 298 297 297 297 297 298 297 296 295 294 292 289 286 280 276 271 266 264 262 261 260 257 255
285 285 286 287 288 289 290 292 293 295 296 297 297 298 298 298 298 297 297 297 296 296 295 295 294 293 291 289 284 278 273 268 265 264 262 261 258 257
283 284 285 286 287 289 290 292 294 295 297 297 298 299 299 298 298 297 297 297 296 295 294 294 293 292 291 289 285 281 276 272 268 266 264 262 260 259
282 282 283 285 287 289 291 293 294 296 297 298 299 299 299 299 298 298 297 297 296 295 294 294 293 291 290 288 284 281 278 276 272 270 267 265 263 261
279 280 282 285 287 289 291 293 295 297 298 299 299 299 299 299 298 298 297 297 296 296 295 294 292 290 288 287 285 282 280 278 275 272 270 268 266 264
278 280 282 284 287 290 291 293 296 297 298 299 299 299 299 298 298 298 298 297 296 295 294 293 292 290 288 286 284 282 281 279 277 275 273 270 268 266
278 280 282 284 287 290 292 294 296 298 299 300 300 300 299 299 299 298 298 298 297 296 295 294 292 290 288 286 285 284 282 280 278 276 274 272 270 268
279 280 282 285 288 290 292 295 296 298 299 300 299 299 299 299 299 299 298 298 297 297 296 295 293 291 289 287 286 285 284 282 280 278 276 274 272 270
278 280 282 286 288 291 293 295 297 298 299 299 299 299 299 299 299 299 299 298 297 297 296 295 294 293 291 289 287 285 284 283 282 281 279 276 273 271
277 280 284 287 289 291 293 295 297 298 299 299 299 299 300 300 300 299 299 299 298 297 297 296 295 293 292 290 288 287 286 285 284 282 281 278 275 272
278 282 285 288 290 292 294 295 297 297 298 299 300 300 301 301 300 300 300 300 299 298 298 297 296 295 293 291 290 289 288 287 285 284 282 279 276 274
281 284 287 289 291 292 294 296 297 298 299 299 300 300 301 301 302 302 302 301 300 299 299 299 298 296 294 293 291 290 289 288 287 286 283 280 278 275
282 285 288 290 292 294 295 297 297 298 299 300 300 301 302 302 302 303 303 303 302 301 301 300 299 298 295 294 293 292 291 290 289 287 285 282 279 275
283 286 288 290 293 294 296 297 298 298 299 300 301 302 302 303 303 303 303 304 304 303 303 302 301 299 297 295 294 293 292 292 291 289 287 285 282 278
284 286 289 291 293 295 296 297 298 299 300 300 301 302 302 303 303 303 303 304 304 304 304 303 302 300 298 297 296 294 293 292 292 291 289 287 284 281
285 287 290 292 293 295 296 297 298 299 300 300 301 302 302 303 303 304 304 304 304 305 305 304 303 302 300 299 297 295 294 293 292 291 290 288 285 283
285 288 290 292 293 295 296 297 298 299 299 301 301 302 302 303 303 304 304 305 304 305 305 305 304 303 301 300 298 296 295 294 293 292 292 290 287 284
285 288 290 292 293 294 296 297 298 299 300 301 301 301 302 302 303 304 305 305 305 304 304 304 304 304 302 301 298 295 294 294 293 293 293 292 290 286
286 288 290 291 293 294 295 297 298 299 300 300 301 301 302 303 304 305 305 305 305 305 305 304 305 305 303 301 299 295 294 294 294 294 293 293 292 288
286 288 290 291 292 294 295 296 298 299 300 300 301 301 302 304 304 305 305 305 305 305 305 304 304 304 303 301 299 296 294 294 295 295 294 293 292 289
287 288 290 291 292 294 295 297 298 299 300 300 301 302 303 304 305 305 305 305 305 305 305 304 304 304 303 301 299 296 293 293 293 294 294 293 292 289
Height
5751 5748 5745 5742 5738 5735 5732 5728 5725 5722 5718 5714 5710 5706 5703 5699 5695 5692 5689 5685 5682 5678 5674 5671 5667 5664 5661 5659 5658 5657 5657 5657 5658 5659 5661 5663 5665 5668
5741 5738 5735 5732 5729 5725 5722 5719 5715 5712 5709 5705 5701 5697 5694 5690 5687 5683 5680 5676 5673 5669 5666 5662 5659 5656 5653 5652 5650 5649 5648 5649 5649 5651 5652 5654 5656 5658
5730 5728 5725 5722 5719 5716 5713 5709 5706 5703 5700 5696 5692 5689 5685 5682 5678 5675 5671 5668 5664 5661 5658 5655 5652 5649 5646 5644 5642 5641 5640 5640 5641 5642 5643 5645 5646 5648
5720 5717 5715 5712 5710 5707 5704 5700 5697 5694 5691 5687 5684 5680 5676 5673 5670 5666 5663 5659 5656 5653 5650 5647 5644 5641 5639 5637 5635 5634 5633 5633 5633 5633 5634 5635 5636 5637
5710 5707 5705 5703 5700 5697 5694 5691 5688 5685 5682 5679 5675 5671 5668 5664 5661 5657 5654 5651 5647 5644 5642 5639 5636 5634 5631 5629 5628 5626 5625 5625 5624 5624 5624 5625 5626 5627
5700 5698 5696 5694 5691 5689 5686 5683 5680 5676 5673 5670 5667 5663 5659 5656 5652 5649 5646 5642 5639 5636 5633 5630 5628 5625 5623 5621 5619 5618 5616 5615 5615 5614 5614 5614 5614 5615
5690 5689 5687 5685 5682 5680 5677 5674 5671 5668 5665 5661 5658 5654 5651 5647 5644 5640 5637 5634 5630 5627 5624 5622 5619 5616 5614 5612 5610 5608 5606 5605 5604 5603 5603 5602 5602 5603
5681 5680 5678 5676 5674 5671 5668 5665 5662 5659 5656 5652 5649 5645 5642 5638 5635 5631 5628 5625 5622 5619 5615 5612 5609 5606 5604 5601 5599 5597 5596 5594 5592 5591 5590 5590 5589 5589
5672 5671 5669 5667 5665 5662 5660 5657 5654 5650 5647 5644 5640 5636 5633 5629 5626 5622 5618 5615 5612 5608 5605 5601 5599 5596 5593 5590 5587 5585 5583 5581 5579 5578 5576 5575 5574 5574
5664 5662 5660 5658 5656 5654 5651 5648 5645 5642 5638 5635 5631 5627 5623 5620 5616 5613 5609 5605 5601 5598 5594 5591 5587 5584 5581 5577 5574 5572 5569 5567 5564 5562 5561 5559 5558 5558
5655 5654 5652 5650 5648 5645 5643 5640 5636 5633 5629 5625 5622 5618 5614 5610 5606 5602 5598 5594 5591 5587 5582 5579 5575 5571 5567 5564 5561 5558 5555 5552 5549 5546 5544 5542 5541 5540
5646 5645 5643 5641 5639 5636 5633 5630 5627 5623 5620 5616 5612 5608 5604 5600 5596 5592 5587 5583 5579 5575 5570 5566 5562 5558 5554 5550 5546 5543 5539 5536 5533 5530 5527 5525 5523 5522
5638 5636 5634 5632 5629 5627 5624 5621 5617 5613 5610 5606 5602 5598 5594 5589 5585 5580 5575 5571 5566 5562 5558 5553 5548 5543 5539 5535 5531 5527 5523 5520 5517 5514 5511 5508 5506 5504
5629 5627 5625 5623 5620 5617 5614 5610 5607 5603 5599 5595 5591 5587 5583 5578 5573 5568 5563 5558 5553 5549 5544 5539 5535 5530 5525 5520 5516 5511 5508 5504 5501 5497 5494 5491 5489 5487
5620 5618 5615 5613 5610 5607 5604 5600 5596 5592 5588 5584 5580 5576 5571 5566 5561 5556 5551 5546 5540 5536 5531 5526 5521 5516 5511 5506 5501 5496 5492 5488 5484 5481 5477 5474 5472 5470
5610 5608 5605 5603 5600 5597 5593 5590 5586 5582 5577 5573 5569 5564 5559 5554 5549 5544 5539 5533 5528 5523 5518 5513 5508 5502 5497 5492 5487 5481 5476 5473 5468 5464 5461 5458 5454 5452
5600 5598 5595 5593 5590 5586 5583 5579 5575 5571 5566 5562 5557 5552 5547 5542 5537 5532 5527 5521 5516 5510 5505 5500 5495 5489 5483 5478 5472 5467 5462 5457 5453 5449 5445 5442 5438 5435
5590 5588 5585 5582 5579 5576 5572 5568 5564 5560 5555 5550 5546 5541 5536 5530 5525 5520 5515 5509 5504 5497 5492 5486 5481 5476 5470 5464 5458 5452 5447 5442 5438 5434 5430 5427 5423 5419
5579 5577 5574 5571 5568 5564 5561 5557 5553 5548 5544 5539 5534 5529 5524 5519 5513 5508 5503 5497 5491 5484 5478 5472 5467 5462 5457 5451 5444 5437 5432 5428 5424 5420 5416 5413 5410 5406
5569 5566 5563 5560 5557 5553 5549 5545 5541 5536 5532 5527 5522 5517 5512 5506 5501 5495 5490 5484 5478 5471 5465 5458 5453 5448 5442 5437 5431 5423 5417 5413 5410 5406 5403 5399 5396 5393
5558 5555 5552 5549 5545 5541 5537 5533 5529 5524 5520 5515 5510 5505 5499 5494 5488 5482 5476 5470 5464 5458 5451 5445 5439 5433 5427 5422 5417 5411 5404 5400 5396 5393 5390 5386 5384 5380
5546 5543 5540 5537 5533 5530 5526 5521 5517 5512 5507 5502 5497 5492 5487 5481 5475 5469 5463 5457 5450 5444 5438 5431 5424 5419 5413 5408 5403 5399 5393 5387 5383 5380 5377 5374 5371 5369
5534 5531 5528 5525 5521 5518 5514 5509 5505 5500 5495 5490 5485 5480 5474 5468 5462 5455 5449 5443 5436 5430 5424 5417 5411 5405 5399 5394 5390 5385 5381 5375 5371 5368 5365 5361 5359 5358